Location: Arrington
(35.8681°N, 86.7092°W)
Time: 01:19:11
(UTC+00:00)

Cosmos 1484 Rocket - Pass Details

Date: 23 November 2019
Orbit: 507 x 559 km, 97.4° (Epoch: 06 December)

Event Time Altitude Azimuth Distance (km) Brightness Sun altitude
Rises 11:02:28 0° 6° (N) 2,751 6.3 -17.8°
Reaches altitude 10° 11:04:38 10° 2° (N) 1,851 5.4 -17.3°
Maximum altitude 11:08:33 54° 285° (WNW) 677 2.9 -16.6°
Drops below altitude 10° 11:12:25 10° 207° (SSW) 1,826 5.3 -15.8°
Sets 11:14:33 0° 203° (SSW) 2,710 6.3 -15.4°
